Mattoon, IL

7:08 AM CDT on June 24, 2019 (GMT -0500)
Coles County Memorial

Weather History for KMTO - May, 2019

Change the Weather History Date:

Wednesday, May 22, 2019

  Actual Average Record
Temperature  
Mean Temperature 69 °F 65 °F  
Max Temperature 78 °F 75 °F 91 °F (1964)
Min Temperature 60 °F 55 °F 39 °F (1963)
Degree Days  
Heating Degree Days 0 3  
Month to date heating degree days 130 108  
Since 1 July heating degree days 5517 5370  
Cooling Degree Days 4 3  
Month to date cooling degree days 37 42  
Year to date cooling degree days 42 56  
Growing Degree Days 19 (Base 50)    
Moisture  
Dew Point 61 °F    
Average Humidity 79    
Maximum Humidity 100    
Minimum Humidity 58    
Precipitation  
Precipitation 0.23 in 0.14 in 1.14 in (1968)
Month to date precipitation 2.23 3.32  
Year to date precipitation 11.25 13.30  
Sea Level Pressure  
Sea Level Pressure 29.87 in    
Wind  
Wind Speed 13 mph (SSE)    
Max Wind Speed 23 mph    
Max Gust Speed 32 mph    
Visibility 8 miles    
Events Rain , Thunderstorm    
T = Trace of Precipitation, MM = Missing Value Source: NWS Daily Summary

Daily Weather History Graph

Daily Weather History Graph

Search for Another Location

Airport or City:

Astronomy

May. 22, 2019 Rise Set
Actual Time 5:33 AM CDT 8:06 PM CDT
Civil Twilight 5:02 AM CDT 8:37 PM CDT
Nautical Twilight 4:24 AM CDT 9:16 PM CDT
Astronomical Twilight 3:41 AM CDT 9:59 PM CDT
Moon 11:50 PM CDT (5/22) 8:41 AM CDT (5/22)
Length of Visible Light 15h 34m
Length of Day
14h 32m
Waning Gibbous, 85% of the Moon is Illuminated
May 22
Waning Gibbous
May 26
Last Quarter
Jun 3
New
Jun 10
First Quarter
Jun 17
Full

Hourly Weather History & Observations

Time (CDT) Temp. Dew Point Humidity Pressure Visibility Wind Dir Wind Speed Gust Speed Precip Events Conditions
12:07 AM 60.1 °F 57.9 °F 93% 29.84 in 3.0 mi ESE 4.6 mph - 0.04 in Rain , Thunderstorm Rain
12:30 AM 60.1 °F 57.9 °F 93% 29.80 in 2.5 mi East 5.8 mph - 0.09 in Rain Heavy Rain
12:42 AM 60.1 °F 59.0 °F 96% 29.82 in 2.0 mi SE 4.6 mph - 0.14 in Rain Heavy Rain
12:49 AM 60.8 °F 59.0 °F 94% 29.83 in 2.0 mi Calm Calm - 0.17 in Rain Heavy Rain
12:53 AM 60.1 °F 59.0 °F 96% 29.83 in 2.0 mi Calm Calm - 0.17 in Rain Rain
1:01 AM 60.1 °F 59.0 °F 96% 29.83 in 3.0 mi Calm Calm - 0.02 in Rain Rain
1:10 AM 60.1 °F 59.0 °F 96% 29.84 in 2.5 mi SSE 4.6 mph - 0.06 in Rain Heavy Rain
1:31 AM 60.1 °F 59.0 °F 96% 29.84 in 2.5 mi SSE 6.9 mph - 0.12 in Rain Rain
1:41 AM 61.0 °F 59.0 °F 93% 29.85 in 3.0 mi SE 8.1 mph - 0.13 in Rain Light Rain
1:53 AM 61.0 °F 60.1 °F 97% 29.83 in 2.0 mi SE 6.9 mph - 0.17 in Rain Heavy Rain
2:53 AM 61.0 °F 59.0 °F 93% 29.80 in 10.0 mi SE 8.1 mph - 0.07 in Rain Light Rain
3:08 AM 61.0 °F 59.0 °F 93% 29.84 in 10.0 mi SSE 10.4 mph - 0.00 in Rain Light Rain
3:53 AM 61.0 °F 59.0 °F 93% 29.84 in 10.0 mi South 8.1 mph - 0.01 in Rain Light Rain
4:53 AM 60.1 °F 60.1 °F 100% 29.83 in 10.0 mi SSE 12.7 mph - 0.00 in   Overcast
5:09 AM 60.1 °F 60.1 °F 100% 29.83 in 10.0 mi South 9.2 mph - 0.00 in Rain Light Rain
5:34 AM 61.0 °F 61.0 °F 100% 29.85 in 9.0 mi SSE 8.1 mph - 0.00 in Rain Light Rain
5:46 AM 60.1 °F 60.1 °F 100% 29.83 in 10.0 mi SSE 10.4 mph - 0.00 in Rain Light Rain
5:53 AM 61.0 °F 60.1 °F 97% 29.83 in 10.0 mi SSE 10.4 mph - 0.00 in Rain Light Rain
6:17 AM 61.0 °F 60.1 °F 97% 29.84 in 10.0 mi SSE 10.4 mph - 0.00 in   Overcast
6:30 AM 61.0 °F 60.1 °F 97% 29.85 in 10.0 mi SSE 17.3 mph 23.0 mph 0.00 in   Overcast
6:53 AM 60.1 °F 60.1 °F 100% 29.86 in 10.0 mi South 9.2 mph - 0.00 in   Scattered Clouds
7:08 AM 61.0 °F 60.1 °F 97% 29.87 in 10.0 mi South 11.5 mph 23.0 mph N/A   Mostly Cloudy
7:36 AM 61.0 °F 57.9 °F 90% 29.88 in 10.0 mi South 13.8 mph 21.9 mph N/A   Mostly Cloudy
7:53 AM 62.1 °F 57.9 °F 86% 29.88 in 10.0 mi South 13.8 mph 21.9 mph N/A   Mostly Cloudy
8:00 AM 62.1 °F 57.9 °F 86% 29.88 in 10.0 mi South 15.0 mph 24.2 mph N/A   Scattered Clouds
8:53 AM 64.0 °F 59.0 °F 84% 29.89 in 10.0 mi South 15.0 mph 27.6 mph N/A   Clear
9:53 AM 66.9 °F 60.1 °F 79% 29.90 in 10.0 mi SSE 16.1 mph 26.5 mph N/A   Clear
10:53 AM 70.0 °F 60.1 °F 71% 29.90 in 10.0 mi South 19.6 mph 28.8 mph N/A   Clear
11:53 AM 73.0 °F 61.0 °F 66% 29.91 in 10.0 mi SSW 16.1 mph 26.5 mph N/A   Clear
12:53 PM 75.0 °F 64.0 °F 69% 29.92 in 10.0 mi South 13.8 mph 26.5 mph N/A   Partly Cloudy
1:53 PM 75.9 °F 64.0 °F 67% 29.92 in 10.0 mi South 15.0 mph 23.0 mph N/A   Clear
2:53 PM 77.0 °F 63.0 °F 62% 29.92 in 10.0 mi South 16.1 mph 25.3 mph N/A   Clear
3:53 PM 78.1 °F 63.0 °F 60% 29.91 in 10.0 mi South 15.0 mph 25.3 mph N/A   Clear
4:53 PM 77.0 °F 64.9 °F 66% 29.92 in 10.0 mi South 12.7 mph 24.2 mph N/A   Clear
5:53 PM 77.0 °F 64.0 °F 64% 29.93 in 10.0 mi South 13.8 mph 21.9 mph N/A   Clear
6:53 PM 77.0 °F 64.0 °F 64% 29.91 in 10.0 mi South 10.4 mph 20.7 mph N/A   Clear
7:53 PM 75.0 °F 64.0 °F 69% 29.92 in 10.0 mi South 9.2 mph - N/A   Clear
8:53 PM 72.0 °F 64.9 °F 78% 29.92 in 10.0 mi SSE 8.1 mph - N/A   Clear
9:53 PM 73.0 °F 66.0 °F 79% 29.92 in 10.0 mi South 12.7 mph - N/A   Clear
10:53 PM 72.0 °F 66.9 °F 84% 29.93 in 10.0 mi South 12.7 mph - N/A   Clear
11:53 PM 73.0 °F 68.0 °F 84% 29.93 in 10.0 mi South 12.7 mph - N/A   Scattered Clouds